FIN2097 ULMM-EFRO

Flight info

Callsign FIN2097
Flight time 0h 42m
Altitude 36000
Route PELOR2P PELOR N2 KELEK DCT AMUBA DCT ROTKO
Aircraft E190/M-SDE3GILORVW/S

Departure

Time 2026-04-22 17:51
Airport Emperor Nicholas II Murmansk Airport (ULMM)

Arrival

Time 2026-04-22 18:33
Airport Rovaniemi Airport (EFRO)
Time Latitude Longitude Altitude Speed Heading
2026-04-22 17:25 68.78377 32.75595 252 ft 0 kts 325°
2026-04-22 17:42 68.78377 32.75594 225 ft 1 kts 325°
2026-04-22 17:42 68.78386 32.75577 252 ft 2 kts 325°
2026-04-22 17:43 68.78405 32.75538 252 ft 4 kts 321°
2026-04-22 17:43 68.78409 32.75456 252 ft 5 kts 252°
2026-04-22 17:43 68.78389 32.75360 252 ft 6 kts 238°
2026-04-22 17:43 68.78362 32.75243 252 ft 8 kts 238°
2026-04-22 17:44 68.78356 32.75219 252 ft 1 kts 238°
2026-04-22 17:44 68.78348 32.75181 252 ft 3 kts 236°
2026-04-22 17:44 68.78331 32.75115 253 ft 5 kts 236°
2026-04-22 17:44 68.78311 32.75029 254 ft 5 kts 237°
2026-04-22 17:45 68.78295 32.74982 255 ft 3 kts 219°
2026-04-22 17:45 68.78256 32.74978 254 ft 9 kts 155°
2026-04-22 17:45 68.78183 32.75114 252 ft 16 kts 146°
2026-04-22 17:45 68.78075 32.75316 251 ft 21 kts 146°
2026-04-22 17:46 68.77949 32.75548 253 ft 22 kts 146°
2026-04-22 17:46 68.77815 32.75797 251 ft 22 kts 146°
2026-04-22 17:46 68.77684 32.76038 250 ft 24 kts 146°
2026-04-22 17:46 68.77547 32.76292 253 ft 24 kts 146°
2026-04-22 17:47 68.77443 32.76520 252 ft 15 kts 113°
2026-04-22 17:47 68.77443 32.76819 252 ft 16 kts 85°
2026-04-22 17:47 68.77416 32.77074 252 ft 14 kts 143°
2026-04-22 17:47 68.77327 32.77122 252 ft 14 kts 216°
2026-04-22 17:48 68.77320 32.77101 252 ft 1 kts 231°
2026-04-22 17:48 68.77306 32.77051 252 ft 4 kts 231°
2026-04-22 17:48 68.77289 32.76965 252 ft 7 kts 245°
2026-04-22 17:48 68.77277 32.76816 251 ft 8 kts 280°
2026-04-22 17:49 68.77300 32.76751 251 ft 0 kts 326°
2026-04-22 17:50 68.77365 32.76629 251 ft 43 kts 326°
2026-04-22 17:50 68.77844 32.75744 252 ft 121 kts 327°
2026-04-22 17:50 68.78663 32.74195 641 ft 156 kts 324°
2026-04-22 17:51 68.79533 32.72321 1781 ft 162 kts 323°
2026-04-22 17:51 68.80402 32.70245 2846 ft 171 kts 327°
2026-04-22 17:51 68.81415 32.68483 3962 ft 173 kts 335°
2026-04-22 17:51 68.82473 32.66824 5070 ft 177 kts 333°
2026-04-22 17:52 68.83536 32.65008 6130 ft 184 kts 332°
2026-04-22 17:52 68.84642 32.63010 7010 ft 195 kts 331°
2026-04-22 17:52 68.85803 32.60839 7958 ft 214 kts 330°
2026-04-22 17:52 68.86955 32.57546 8368 ft 262 kts 304°
2026-04-22 17:53 68.87490 32.52530 9661 ft 283 kts 282°
2026-04-22 17:53 68.87295 32.46925 10816 ft 307 kts 258°
2026-04-22 17:53 68.86199 32.41649 12060 ft 325 kts 238°
2026-04-22 17:53 68.84651 32.36976 13290 ft 334 kts 230°
2026-04-22 17:54 68.82889 32.32643 14336 ft 345 kts 225°
2026-04-22 17:54 68.81020 32.28188 15000 ft 362 kts 229°
2026-04-22 17:54 68.79166 32.23341 15892 ft 371 kts 230°
2026-04-22 17:54 68.77280 32.18365 16888 ft 379 kts 230°
2026-04-22 17:55 68.76008 32.15026 17534 ft 383 kts 230°
2026-04-22 17:55 68.73382 32.08175 18642 ft 394 kts 230°
2026-04-22 17:55 68.71362 32.02929 19324 ft 403 kts 231°
2026-04-22 17:55 68.69297 31.97583 20051 ft 412 kts 232°
2026-04-22 17:56 68.67184 31.92134 20780 ft 420 kts 232°
2026-04-22 17:56 68.65027 31.86588 21482 ft 429 kts 233°
2026-04-22 17:56 68.62829 31.80951 22158 ft 437 kts 233°
2026-04-22 17:56 68.60608 31.75176 22823 ft 441 kts 237°
2026-04-22 17:57 68.58633 31.68801 23349 ft 441 kts 245°
2026-04-22 17:57 68.56757 31.62137 23932 ft 445 kts 245°
2026-04-22 17:57 68.54822 31.55449 24535 ft 451 kts 244°
2026-04-22 17:57 68.52833 31.48763 25128 ft 457 kts 243°
2026-04-22 17:58 68.50798 31.42039 25725 ft 462 kts 243°
2026-04-22 17:58 68.48737 31.35277 26282 ft 466 kts 243°
2026-04-22 17:58 68.46650 31.28456 26836 ft 471 kts 242°
2026-04-22 17:58 68.44541 31.21588 27375 ft 475 kts 242°
2026-04-22 17:59 68.42408 31.14666 27896 ft 480 kts 242°
2026-04-22 17:59 68.40255 31.07699 28412 ft 484 kts 242°
2026-04-22 17:59 68.38080 31.00683 28922 ft 488 kts 242°
2026-04-22 17:59 68.35912 30.93705 29382 ft 493 kts 242°
2026-04-22 18:00 68.34415 30.88902 29671 ft 495 kts 242°
2026-04-22 18:00 68.31456 30.79444 30280 ft 499 kts 241°
2026-04-22 18:00 68.29206 30.72287 30719 ft 500 kts 240°
2026-04-22 18:00 68.27682 30.67450 31017 ft 501 kts 240°
2026-04-22 18:01 68.24756 30.58169 31637 ft 496 kts 231°
2026-04-22 18:01 68.22554 30.51269 32536 ft 488 kts 240°
2026-04-22 18:01 68.20329 30.44236 32509 ft 499 kts 240°
2026-04-22 18:01 68.18062 30.37082 32760 ft 503 kts 239°
2026-04-22 18:02 68.15788 30.29970 33286 ft 501 kts 239°
2026-04-22 18:02 68.13515 30.22913 33814 ft 497 kts 239°
2026-04-22 18:02 68.11269 30.15950 34356 ft 491 kts 239°
2026-04-22 18:02 68.09037 30.09026 34748 ft 490 kts 239°
2026-04-22 18:03 68.06812 30.02134 35100 ft 489 kts 238°
2026-04-22 18:03 68.04589 29.95282 35473 ft 487 kts 238°
2026-04-22 18:03 68.02368 29.88449 35871 ft 485 kts 238°
2026-04-22 18:03 68.00148 29.81645 35997 ft 490 kts 237°
2026-04-22 18:04 67.97891 29.74741 36007 ft 498 kts 237°
2026-04-22 18:04 67.93245 29.60603 35877 ft 516 kts 237°
2026-04-22 18:05 67.88445 29.46117 35876 ft 528 kts 237°
2026-04-22 18:05 67.86041 29.38914 35845 ft 510 kts 237°
2026-04-22 18:05 67.84501 29.34343 35835 ft 496 kts 237°
2026-04-22 18:06 67.79994 29.20889 35922 ft 489 kts 238°
2026-04-22 18:06 67.75434 29.07296 35945 ft 499 kts 237°
2026-04-22 18:07 67.70771 28.93539 35894 ft 506 kts 237°
2026-04-22 18:07 67.66051 28.79749 35863 ft 508 kts 236°
2026-04-22 18:08 67.61300 28.65973 35908 ft 509 kts 236°
2026-04-22 18:08 67.56546 28.52211 35914 ft 509 kts 236°
2026-04-22 18:09 67.51779 28.38522 35918 ft 509 kts 236°
2026-04-22 18:09 67.46996 28.24884 35924 ft 509 kts 236°
2026-04-22 18:10 67.42198 28.11291 35883 ft 510 kts 236°
2026-04-22 18:10 67.37386 27.97698 35644 ft 509 kts 236°
2026-04-22 18:10 67.35001 27.91038 35302 ft 496 kts 236°
2026-04-22 18:11 67.32653 27.84524 34578 ft 494 kts 237°
2026-04-22 18:11 67.30320 27.78034 33923 ft 491 kts 237°
2026-04-22 18:11 67.28006 27.71599 33238 ft 486 kts 238°
2026-04-22 18:11 67.25701 27.65286 32612 ft 481 kts 238°
2026-04-22 18:12 67.23417 27.59025 32006 ft 476 kts 239°
2026-04-22 18:12 67.21166 27.52819 31339 ft 472 kts 239°
2026-04-22 18:12 67.18960 27.46738 30768 ft 471 kts 239°
2026-04-22 18:12 67.16703 27.40564 30127 ft 475 kts 239°
2026-04-22 18:13 67.14420 27.34322 29447 ft 483 kts 239°
2026-04-22 18:13 67.12107 27.28010 28859 ft 487 kts 239°
2026-04-22 18:13 67.09769 27.21660 28181 ft 490 kts 238°
2026-04-22 18:13 67.07421 27.15307 27536 ft 491 kts 238°
2026-04-22 18:14 67.05070 27.08967 26873 ft 489 kts 238°
2026-04-22 18:14 67.02732 27.02684 26224 ft 485 kts 238°
2026-04-22 18:14 67.00411 26.96475 25588 ft 480 kts 238°
2026-04-22 18:14 66.98110 26.90333 24956 ft 476 kts 238°
2026-04-22 18:15 66.95830 26.84261 24325 ft 472 kts 238°
2026-04-22 18:15 66.93562 26.78256 23668 ft 468 kts 238°
2026-04-22 18:15 66.91316 26.72341 23077 ft 461 kts 238°
2026-04-22 18:15 66.89095 26.66514 22473 ft 455 kts 237°
2026-04-22 18:16 66.86910 26.60777 21882 ft 449 kts 238°
2026-04-22 18:16 66.84751 26.55098 21294 ft 444 kts 238°
2026-04-22 18:16 66.82617 26.49485 20704 ft 440 kts 237°
2026-04-22 18:16 66.80567 26.44157 20255 ft 431 kts 234°
2026-04-22 18:17 66.78457 26.38722 19508 ft 436 kts 237°
2026-04-22 18:17 66.76339 26.33285 18991 ft 431 kts 236°
2026-04-22 18:17 66.74248 26.27914 18401 ft 426 kts 236°
2026-04-22 18:17 66.72218 26.22672 17800 ft 419 kts 236°
2026-04-22 18:18 66.70203 26.17466 17282 ft 411 kts 236°
2026-04-22 18:18 66.68213 26.12362 16740 ft 403 kts 236°
2026-04-22 18:18 66.66251 26.07370 16189 ft 398 kts 235°
2026-04-22 18:18 66.64315 26.02453 15666 ft 394 kts 235°
2026-04-22 18:19 66.62398 25.97567 15144 ft 390 kts 235°
2026-04-22 18:19 66.60504 25.92733 14626 ft 386 kts 234°
2026-04-22 18:19 66.58623 25.87981 14122 ft 381 kts 233°
2026-04-22 18:19 66.56773 25.83282 13652 ft 375 kts 233°
2026-04-22 18:20 66.54959 25.78690 13291 ft 365 kts 233°
2026-04-22 18:20 66.53193 25.74241 12831 ft 359 kts 233°
2026-04-22 18:20 66.51694 25.69285 11807 ft 352 kts 253°
2026-04-22 18:20 66.51135 25.63518 10779 ft 335 kts 278°
2026-04-22 18:21 66.51610 25.57992 9881 ft 317 kts 302°
2026-04-22 18:21 66.52319 25.53013 10003 ft 300 kts 287°
2026-04-22 18:21 66.52060 25.47843 10035 ft 303 kts 257°
2026-04-22 18:21 66.51123 25.43231 9960 ft 291 kts 251°
2026-04-22 18:22 66.50038 25.38958 9452 ft 302 kts 233°
2026-04-22 18:22 66.48210 25.36179 9110 ft 311 kts 196°
2026-04-22 18:22 66.46098 25.35986 8748 ft 305 kts 165°
2026-04-22 18:22 66.44290 25.38320 8537 ft 282 kts 130°
2026-04-22 18:23 66.43231 25.42160 8138 ft 259 kts 97°
2026-04-22 18:23 66.42919 25.46380 7966 ft 241 kts 89°
2026-04-22 18:23 66.42655 25.50501 7686 ft 240 kts 91°
2026-04-22 18:24 66.42874 25.58598 6199 ft 241 kts 49°
2026-04-22 18:24 66.44209 25.61082 5325 ft 246 kts 18°
2026-04-22 18:24 66.47240 25.65697 3480 ft 271 kts 38°
2026-04-22 18:25 66.48549 25.68855 3487 ft 248 kts 46°
2026-04-22 18:25 66.49512 25.71808 4756 ft 187 kts 38°
2026-04-22 18:25 66.50501 25.73987 4886 ft 205 kts 34°
2026-04-22 18:26 66.53254 25.77768 3040 ft 243 kts 18°
2026-04-22 18:26 66.54886 25.78963 2407 ft 245 kts 11°
2026-04-22 18:26 66.56588 25.79581 1797 ft 247 kts
2026-04-22 18:26 66.58195 25.79850 2255 ft 209 kts
2026-04-22 18:27 66.59633 25.79942 1905 ft 213 kts 359°
2026-04-22 18:27 66.61035 25.80033 2221 ft 185 kts
2026-04-22 18:27 66.62267 25.80622 2519 ft 184 kts 14°
2026-04-22 18:27 66.63474 25.81673 2634 ft 184 kts 12°
2026-04-22 18:28 66.64678 25.82127 2619 ft 168 kts
2026-04-22 18:28 66.65933 25.82277 1677 ft 190 kts 360°
2026-04-22 18:28 66.67082 25.82623 2248 ft 157 kts 19°
2026-04-22 18:28 66.67926 25.84503 2453 ft 176 kts 55°
2026-04-22 18:29 66.68149 25.87585 2512 ft 182 kts 81°
2026-04-22 18:29 66.68058 25.90791 2558 ft 188 kts 91°
2026-04-22 18:29 66.67711 25.94040 2390 ft 190 kts 101°
2026-04-22 18:29 66.67095 25.97001 2273 ft 192 kts 121°
2026-04-22 18:30 66.66066 25.99323 1946 ft 208 kts 146°
2026-04-22 18:30 66.63669 25.97568 1834 ft 193 kts 231°
2026-04-22 18:30 66.62698 25.95296 1748 ft 185 kts 227°
2026-04-22 18:31 66.61779 25.93399 1696 ft 158 kts 227°
2026-04-22 18:31 66.60986 25.91697 1541 ft 142 kts 226°
2026-04-22 18:31 66.60235 25.90223 1347 ft 133 kts 223°
2026-04-22 18:31 66.59502 25.88828 1203 ft 133 kts 223°
2026-04-22 18:32 66.58755 25.87397 1062 ft 135 kts 223°
2026-04-22 18:32 66.58003 25.85965 801 ft 136 kts 221°
2026-04-22 18:32 66.57277 25.84565 645 ft 127 kts 221°
2026-04-22 18:32 66.56681 25.83415 633 ft 84 kts 216°
2026-04-22 18:33 66.56346 25.82775 633 ft 46 kts 218°
2026-04-22 18:33 66.56231 25.82783 630 ft 9 kts 103°
2026-04-22 18:33 66.56204 25.82916 628 ft 0 kts 125°
2026-04-22 18:34 66.56191 25.82961 630 ft 6 kts 125°
2026-04-22 18:34 66.56168 25.82990 626 ft 4 kts 186°
2026-04-22 18:34 66.56139 25.82932 627 ft 7 kts 219°
2026-04-22 18:35 66.56092 25.82843 626 ft 10 kts 217°
2026-04-22 18:35 66.56026 25.82719 625 ft 13 kts 217°
2026-04-22 18:35 66.55951 25.82624 625 ft 11 kts 174°
2026-04-22 18:35 66.55883 25.82705 626 ft 11 kts 155°
2026-04-22 18:36 66.55860 25.82731 626 ft 0 kts 155°